map of NVA home
Great Circle Mapper logo
NVA - Airport
Location
City:  Neiva, Huila, Colombia
Name:Benito Salas Airport
ICAO / IATA:SKNV / NVA

Details
Type:Airport (Aerodrome, Airfield)
Latitude:2°57'02"N (2.950422)
Longitude:75°17'38"W (-75.293982)
Elevation:1464 ft (446 m)
Variation:5.86°W (WMM2015 magnetic declination)
-0.15° annual change
Runways:1
Longest:5880 × 131 ft (1792 × 40 m), paved

Time
Time Zone:UTC-5
Local Time:

Weather
METAR:SKNV 011200Z 00000KT 9999 BKN110 25/18 A2994

Related Locations
Nearby:
Farthest:PLM: 12450 mi / 20037 km
Palembang [Sultan Mahmud Badaruddin II Intl], SS, ID

Find:

   beyond  
but within

Other Information
Maps:
NOTAMs:
Links:
Sources:

  
flag of Colombia
flag of Huila
  

Sectional Chart

Flight Planning
at skyvector.com

Satellite Image

Google Maps Satellite view

 

Copyright © 2004-2015 Karl L. Swartz. All rights reserved.
The Great Circle Mapper name and logo are trademarks of the Great Circle Mapper.
All other trademarks mentioned herein belong to their respective owners.
Please see credits for attibutions and further copyright information.

  Follow gcmap on Facebook Follow gcmap on Twitter Follow gcmap on Google+

hCard Microformat

Geo Microformat